User: anonymous   Login
Location: Carella
(45.8167°N, 9.2667°E)
Time: 17:56:48
(UTC+00:00)
Language:

STARLINK-1138 - Orbit

View from above orbital plane
View from above orbital plane
View from above satellite
View from above satellite

Ground track
Ground track

The orbit data is extracted from the following two-line orbital elements,

1 45178U 20012A   20185.50001157  .00010556  00000-0  74252-3 0  9995
2 45178  52.9993   2.5074 0001426 115.9623 132.2782 15.05580924 21425
Epoch (UTC): 03 July 2020 12:00:01
Eccentricity: 0.0001426
inclination: 52.9993°
perigee height: 549 km
apogee height: 551 km
right ascension of ascending node: 2.5074°
argument of perigee: 115.9623°
revolutions per day: 15.05580924
mean anomaly at epoch: 132.2782°
orbit number at epoch: 2142

The dashed part of the orbit path shows where the satellite is in the earth's shadow,  

DLR